This demonstration page uses our WeatherBlox Daily Observations layout. Learn more.

Left ArrowRight Arrow

39.01783, -85.05884

Hourly Observations for October 30, 2020

Temp ( °F °C ) Dew Point ( °F °C ) Humidity (%) Winds ( mph kmh ) Pressure ( in mb ) Visibility ( mi km ) Precip ( " mm )
12:52 am 00:52 Cloudy 46 7.8 41 5 83 83 NNW 15 24 29.91 1013 10 16.0934 0 0
1:52 am 01:52 Cloudy 45 7.2 41 5 86 86 NNW 13 20 29.94 1014 10 16.0934 0 0
2:28 am 02:28 Cloudy 45 7.2 40 4.4 83 83 NNW 18 30 29.98 1015 10 16.0934 0 0
2:52 am 02:52 Cloudy 45 7.2 40 4.4 83 83 NNW 14 22 29.97 1015 10 16.0934 0 0
3:52 am 03:52 Cloudy 45 7.2 40 4.4 83 83 NNW 18 30 29.98 1015 10 16.0934 0 0
4:04 am 04:04 Cloudy 44 6.7 39 3.9 83 83 NNW 17 28 30.01 1016 10 16.0934 0 0
4:52 am 04:52 Cloudy 44 6.7 39 3.9 83 83 NNW 13 20 30.01 1016 10 16.0934 0 0
5:52 am 05:52 Cloudy 44 6.7 39 3.9 83 83 NW 8 13 30.04 1017 10 16.0934 0 0
6:52 am 06:52 Cloudy 43 6.1 36 2.2 76 76 NW 13 20 30.08 1019 10 16.0934 0 0
7:52 am 07:52 Cloudy 43 6.1 36 2.2 76 76 NNW 9 15 30.1 1019 10 16.0934 0 0
8:52 am 08:52 Mostly Cloudy 43 6.1 37 2.8 80 80 WNW 8 13 30.14 1021 10 16.0934 0 0
9:52 am 09:52 Mostly Cloudy 43 6.1 37 2.8 80 80 NW 13 20 30.18 1022 10 16.0934 0 0
10:52 am 10:52 Mostly Cloudy 44 6.7 36 2.2 73 73 WNW 13 20 30.22 1023 10 16.0934 0 0
11:52 am 11:52 Mostly Cloudy 46 7.8 37 2.8 71 71 WNW 12 19 30.24 1024 10 16.0934 0 0
12:52 pm 12:52 Mostly Cloudy 47 8.3 33 0.6 59 59 NNW 10 17 30.24 1024 10 16.0934 0 0
1:52 pm 13:52 Mostly Cloudy 47 8.3 34 1.1 61 61 NNW 10 17 30.25 1024 10 16.0934 0 0
2:52 pm 14:52 Mostly Cloudy 48 8.9 34 1.1 58 58 N 10 17 30.24 1024 10 16.0934 0 0
3:52 pm 15:52 Mostly Cloudy 49 9.4 32 0 52 52 WNW 7 11 30.24 1024 10 16.0934 0 0
4:52 pm 16:52 Mostly Cloudy 47 8.3 32 0 56 56 NW 8 13 30.26 1025 10 16.0934 0 0
5:52 pm 17:52 Mostly Cloudy 47 8.3 32 0 56 56 WNW 7 11 30.27 1025 10 16.0934 0 0
6:52 pm 18:52 Mostly Cloudy 45 7.2 33 0.6 63 63 WNW 6 9 30.28 1025 10 16.0934 0 0
7:52 pm 19:52 Partly Cloudy 43 6.1 32 0 65 65 WSW 3 6 30.3 1026 10 16.0934 0 0
8:52 pm 20:52 Mostly Clear 41 5 33 0.6 73 73 W 3 6 30.32 1027 10 16.0934 0 0
9:52 pm 21:52 Mostly Clear 40 4.4 32 0 73 73 Calm 30.32 1027 10 16.0934 0 0
10:52 pm 22:52 Mostly Clear 39 3.9 32 0 76 76 Calm 30.34 1027 10 16.0934 0 0
11:52 pm 23:52 Clear 40 4.4 32 0 73 73 Calm 30.35 1028 10 16.0934 0 0

Powered by AerisWeather